tititudorancea.com
Station Historical Data
Daily Summary for November 16, 2018 Units:  Metric    English   Both
« Previous Day
Next Day »
Daily Weekly Monthly Yearly Custom
  High: Low: Average:
Temperature: -17.8 °C 5.5 °C 12.8 °C
Dew Point: -17.8 °C 3.7 °C 5.1 °C
Humidity: Humidity % 35 % 63 %
Wind Speed: 0 km/h 3.7 km/h 15 km/h
Wind Gust: 0 km/h - -
Wind:- - SSW
Pressure: 0 hPa 1017.8 hPa -
Precipitation: 0 mm    
Historical Graphs
 
 
Ararat weather Find more about Weather in Ararat, AU


 



 


Tabular Data for November 16, 2018
Time Temperature Dew Point Pressure Wind Wind Speed Wind Gust Humidity Rainfall Rate (Hourly)
-17.8 °C -17.8 °C 0 hPa Calm     Humidity % 0 mm
00:04 8.3 °C 5.4 °C 1022.2 hPa South 7.4 km/h 4.5 km/h 82 % 0 mm
00:09 8.2 °C 5.3 °C 1022.2 hPa South 5.6 km/h 3.1 km/h 82 % 0 mm
00:14 8.2 °C 5.3 °C 1022.2 hPa South 7.4 km/h 3.4 km/h 82 % 0 mm
00:19 8.2 °C 5.3 °C 1022.6 hPa South 5.6 km/h 4.5 km/h 82 % 0 mm
00:24 8.2 °C 5.1 °C 1022.2 hPa South 6.4 km/h 4.3 km/h 81 % 0 mm
00:29 8.1 °C 5.1 °C 1022.2 hPa South 8 km/h 4.3 km/h 81 % 0 mm
00:34 8.1 °C 5 °C 1022.2 hPa South 3.7 km/h 2.7 km/h 81 % 0 mm
00:39 8.1 °C 5 °C 1022.2 hPa South 7.4 km/h 8 km/h 81 % 0 mm
00:44 8.1 °C 5.1 °C 1022.2 hPa South 9.3 km/h 5.3 km/h 81 % 0 mm
00:49 8.1 °C 5.1 °C 1021.9 hPa South 7.4 km/h 4 km/h 81 % 0 mm
00:54 8.2 °C 5.1 °C 1022.2 hPa South 7.4 km/h 4.7 km/h 81 % 0 mm
00:59 8.1 °C 4.9 °C 1021.9 hPa South 8 km/h 4.2 km/h 80 % 0 mm
01:04 8 °C 4.9 °C 1021.9 hPa South 8 km/h 4.3 km/h 81 % 0 mm
01:09 7.9 °C 4.7 °C 1021.9 hPa South 9.7 km/h 9 km/h 80 % 0 mm
01:14 7.9 °C 4.7 °C 1021.6 hPa South 5.6 km/h 4.8 km/h 80 % 0 mm
01:19 7.9 °C 4.7 °C 1021.6 hPa South 6.4 km/h 7.1 km/h 80 % 0 mm
01:24 7.8 °C 4.7 °C 1021.2 hPa South 14.8 km/h 8.9 km/h 81 % 0 mm
01:29 7.8 °C 4.8 °C 1021.2 hPa South 11.1 km/h 8 km/h 81 % 0 mm
01:34 7.8 °C 4.8 °C 1021.2 hPa North 8 km/h 7.7 km/h 81 % 0 mm
01:39 7.8 °C 4.6 °C 1021.2 hPa South 7.4 km/h 8.5 km/h 80 % 0 mm
01:44 7.8 °C 4.6 °C 1021.2 hPa South 9.3 km/h 5.8 km/h 80 % 0 mm
01:49 7.7 °C 4.5 °C 1021.2 hPa South 11.1 km/h 6.3 km/h 80 % 0 mm
01:54 7.7 °C 4.6 °C 1021.2 hPa South 9.3 km/h 6.9 km/h 81 % 0 mm
01:59 7.6 °C 4.6 °C 1021.2 hPa South 7.4 km/h 5.1 km/h 81 % 0 mm
02:04 7.6 °C 4.5 °C 1021.2 hPa South 9.3 km/h 5.5 km/h 81 % 0 mm
02:09 7.5 °C 4.4 °C 1021.2 hPa South 5.6 km/h 1.6 km/h 81 % 0 mm
02:14 7.4 °C 4.4 °C 1020.9 hPa South 3.7 km/h 2.9 km/h 81 % 0 mm
02:19 7.4 °C 4.3 °C 1020.9 hPa South 5.6 km/h 5.3 km/h 81 % 0 mm
02:24 7.3 °C 4.2 °C 1020.9 hPa South 9.3 km/h 5.5 km/h 81 % 0 mm
02:29 7.2 °C 4.3 °C 1020.9 hPa South 7.4 km/h 5 km/h 82 % 0 mm
02:34 7.2 °C 4.3 °C 1020.9 hPa South 11.1 km/h 6.3 km/h 82 % 0 mm
02:39 7.2 °C 4.3 °C 1020.9 hPa South 14.8 km/h 4.5 km/h 82 % 0 mm
02:44 7.1 °C 4.4 °C 1020.5 hPa South 7.4 km/h 5.6 km/h 83 % 0 mm
02:49 7.1 °C 4.4 °C 1020.5 hPa South 7.4 km/h 4 km/h 83 % 0 mm
02:54 7.1 °C 4.4 °C 1020.5 hPa South 5.6 km/h 6.3 km/h 83 % 0 mm
02:59 7 °C 4.3 °C 1020.5 hPa South 7.4 km/h 6 km/h 83 % 0 mm
03:04 7 °C 4.3 °C 1020.2 hPa South 13 km/h 7.4 km/h 83 % 0 mm
03:09 6.9 °C 4.3 °C 1020.2 hPa South 8 km/h 6.8 km/h 83 % 0 mm
03:14 6.9 °C 4.2 °C 1020.5 hPa South 7.4 km/h 5 km/h 83 % 0 mm
03:19 6.9 °C 4.4 °C 1020.2 hPa South 11.1 km/h 5.1 km/h 84 % 0 mm
03:24 6.8 °C 4.3 °C 1020.5 hPa South 11.1 km/h 5.8 km/h 84 % 0 mm
03:29 6.7 °C 4.2 °C 1020.2 hPa South 8 km/h 6.8 km/h 84 % 0 mm
03:34 6.6 °C 4.1 °C 1020.2 hPa South 14.8 km/h 9 km/h 84 % 0 mm
03:39 6.6 °C 4.2 °C 1020.2 hPa South 11.3 km/h 8.2 km/h 85 % 0 mm
03:44 6.6 °C 4.2 °C 1020.5 hPa South 7.4 km/h 6.8 km/h 85 % 0 mm
03:49 6.5 °C 4 °C 1020.2 hPa North 11.1 km/h 4.8 km/h 84 % 0 mm
03:54 6.4 °C 3.9 °C 1020.2 hPa South 7.4 km/h 6.4 km/h 84 % 0 mm
03:59 6.3 °C 4 °C 1019.9 hPa South 13 km/h 7.1 km/h 85 % 0 mm
04:04 6.2 °C 3.9 °C 1019.9 hPa South 8 km/h 5.3 km/h 85 % 0 mm
04:09 6.1 °C 3.8 °C 1019.9 hPa South 6.4 km/h 4.7 km/h 85 % 0 mm
04:14 6.1 °C 3.9 °C 1019.9 hPa South 6.4 km/h 6.4 km/h 86 % 0 mm
04:19 6 °C 3.8 °C 1019.9 hPa South 9.3 km/h 6.8 km/h 86 % 0 mm
04:24 5.9 °C 3.7 °C 1019.9 hPa South 5.6 km/h 6 km/h 86 % 0 mm
04:29 5.9 °C 3.9 °C 1019.9 hPa South 9.3 km/h 7.2 km/h 87 % 0 mm
04:34 5.9 °C 3.9 °C 1020.2 hPa South 11.1 km/h 5 km/h 87 % 0 mm
04:39 5.9 °C 3.9 °C 1019.9 hPa South 7.4 km/h 4.2 km/h 87 % 0 mm
04:44 5.9 °C 3.9 °C 1019.9 hPa South 7.4 km/h 4.5 km/h 87 % 0 mm
04:49 5.9 °C 3.9 °C 1019.9 hPa South 7.4 km/h 4 km/h 87 % 0 mm
04:54 5.9 °C 3.9 °C 1019.9 hPa South 5.6 km/h 4.3 km/h 87 % 0 mm
04:59 5.9 °C 3.9 °C 1019.9 hPa South 5.6 km/h 3.9 km/h 87 % 0 mm
05:04 5.8 °C 3.8 °C 1019.9 hPa South 5.6 km/h 5.1 km/h 87 % 0 mm
05:09 5.7 °C 3.9 °C 1019.9 hPa South 7.4 km/h 4.5 km/h 88 % 0 mm
05:14 5.7 °C 3.8 °C 1019.9 hPa South 7.4 km/h 3.7 km/h 88 % 0 mm
05:19 5.7 °C 3.8 °C 1019.9 hPa South 5.6 km/h 4.2 km/h 88 % 0 mm
05:24 5.7 °C 3.8 °C 1019.9 hPa South 7.4 km/h 5.6 km/h 88 % 0 mm
05:29 5.7 °C 4 °C 1019.9 hPa South 5.6 km/h 5.5 km/h 89 % 0 mm
05:34 5.7 °C 4 °C 1019.9 hPa South 6.4 km/h 4.7 km/h 89 % 0 mm
05:39 5.7 °C 4 °C 1019.9 hPa South 6.4 km/h 5 km/h 89 % 0 mm
05:44 5.6 °C 3.9 °C 1019.9 hPa South 7.4 km/h 4.5 km/h 89 % 0 mm
05:49 5.6 °C 3.9 °C 1019.9 hPa South 6.4 km/h 4.8 km/h 89 % 0 mm
05:54 5.6 °C 3.9 °C 1019.9 hPa South 5.6 km/h 3.5 km/h 89 % 0 mm
05:59 5.5 °C 3.8 °C 1019.9 hPa South 5.6 km/h 4.2 km/h 89 % 0 mm
06:04 5.5 °C 3.8 °C 1019.9 hPa South 9.3 km/h 5.8 km/h 89 % 0 mm
06:09 5.6 °C 3.9 °C 1019.9 hPa North 5.6 km/h 4.7 km/h 89 % 0 mm
06:14 5.5 °C 3.8 °C 1019.9 hPa South 5.6 km/h 4.5 km/h 89 % 0 mm
06:19 5.5 °C 3.8 °C 1019.9 hPa South 4.8 km/h 4.8 km/h 89 % 0 mm
06:24 5.5 °C 4 °C 1019.9 hPa South 5.6 km/h 4.3 km/h 90 % 0 mm
06:29 5.6 °C 4.1 °C 1019.9 hPa South 5.6 km/h 2.1 km/h 90 % 0 mm
06:34 5.7 °C 4.2 °C 1019.9 hPa North 5.6 km/h 3.4 km/h 90 % 0 mm
06:39 5.9 °C 4.4 °C 1019.9 hPa South 7.4 km/h 4.3 km/h 90 % 0 mm
06:44 6.1 °C 4.6 °C 1019.9 hPa South 5.6 km/h 4 km/h 90 % 0 mm
06:49 6.3 °C 4.8 °C 1019.9 hPa South 5.6 km/h 2.7 km/h 90 % 0 mm
06:54 6.4 °C 4.9 °C 1019.9 hPa South 7.4 km/h 6.3 km/h 90 % 0 mm
06:59 6.7 °C 5.2 °C 1019.9 hPa South 9.7 km/h 7.7 km/h 90 % 0 mm
07:04 6.8 °C 5.2 °C 1019.9 hPa South 5.6 km/h 3.1 km/h 89 % 0 mm
07:09 7.1 °C 5.4 °C 1019.9 hPa South 7.4 km/h 3.1 km/h 89 % 0 mm
07:14 7.2 °C 5.6 °C 1019.9 hPa South 7.4 km/h 3.9 km/h 89 % 0 mm
07:19 7.4 °C 5.6 °C 1019.9 hPa South 5.6 km/h 3.5 km/h 88 % 0 mm
07:24 7.6 °C 5.7 °C 1019.9 hPa South 9.3 km/h 6 km/h 88 % 0 mm
07:29 7.7 °C 5.7 °C 1020.2 hPa South 9.3 km/h 7.2 km/h 87 % 0 mm
07:34 7.9 °C 5.8 °C 1020.2 hPa South 11.1 km/h 3.9 km/h 87 % 0 mm
07:39 8.2 °C 6.1 °C 1020.2 hPa South 9.3 km/h 4.5 km/h 87 % 0 mm
07:44 8.3 °C 6.1 °C 1020.5 hPa South 13 km/h 8 km/h 86 % 0 mm
07:49 8.5 °C 6.1 °C 1020.5 hPa South 5.6 km/h 4 km/h 85 % 0 mm
07:54 8.8 °C 6.4 °C 1020.5 hPa South 7.4 km/h 4.3 km/h 85 % 0 mm
07:59 9.1 °C 6.7 °C 1020.5 hPa South 6.4 km/h 4 km/h 85 % 0 mm
08:04 9.3 °C 6.8 °C 1020.5 hPa South 6.4 km/h 4.8 km/h 84 % 0 mm
08:09 9.4 °C 6.5 °C 1020.5 hPa South 9.3 km/h 7.1 km/h 82 % 0 mm
08:14 9.7 °C 6.8 °C 1020.5 hPa South 11.1 km/h 5.1 km/h 82 % 0 mm
08:29 10.3 °C 7.2 °C 1020.5 hPa South 6.4 km/h 6 km/h 81 % 0 mm
08:34 10.5 °C 7 °C 1020.5 hPa South 8 km/h 5.1 km/h 79 % 0 mm
08:39 10.7 °C 7.2 °C 1020.5 hPa South 8 km/h 5.8 km/h 79 % 0 mm
08:44 11.2 °C 7.3 °C 1020.5 hPa South 9.3 km/h 9.3 km/h 77 % 0 mm
08:49 11.3 °C 7.3 °C 1020.5 hPa South 7.4 km/h 5.8 km/h 76 % 0 mm
08:54 11.6 °C 7.3 °C 1020.5 hPa South 9.3 km/h 5.1 km/h 75 % 0 mm
08:59 12 °C 7.7 °C 1020.5 hPa South 5.6 km/h 4.5 km/h 75 % 0 mm
09:04 12.3 °C 7.8 °C 1020.5 hPa South 5.6 km/h 2.9 km/h 74 % 0 mm
09:09 12.2 °C 7.3 °C 1020.2 hPa South 7.4 km/h 5.6 km/h 72 % 0 mm
09:14 12.3 °C 7.6 °C 1020.5 hPa South 5.6 km/h 2.4 km/h 73 % 0 mm
09:19 12.4 °C 7.3 °C 1020.5 hPa South 11.1 km/h 9 km/h 71 % 0 mm
09:24 12.6 °C 7.5 °C 1020.5 hPa South 9.3 km/h 4.3 km/h 71 % 0 mm
09:29 13.1 °C 7.8 °C 1020.5 hPa South 7.4 km/h 1.6 km/h 70 % 0 mm
09:34 13.4 °C 7.2 °C 1020.5 hPa South 11.1 km/h 6.9 km/h 66 % 0 mm
09:39 13.6 °C 6.9 °C 1020.2 hPa South 9.7 km/h 3.5 km/h 64 % 0 mm
09:44 13.9 °C 6.3 °C 1020.2 hPa SSW 16.1 km/h 12.6 km/h 60 % 0 mm
09:49 14.5 °C 6.3 °C 1020.2 hPa South 9.7 km/h 6.3 km/h 58 % 0 mm
09:54 15 °C 4.9 °C 1020.2 hPa South 14.8 km/h 5.3 km/h 51 % 0 mm
09:59 15.2 °C 4.8 °C 1020.2 hPa SSE 16.1 km/h 11.6 km/h 50 % 0 mm
10:04 15.4 °C 3.8 °C 1020.2 hPa SSW 20.4 km/h 13.7 km/h 46 % 0 mm
10:09 15.7 °C 4.7 °C 1020.2 hPa South 9.3 km/h 6.9 km/h 48 % 0 mm
10:14 15.6 °C 3.7 °C 1020.2 hPa South 20.4 km/h 14.2 km/h 45 % 0 mm
10:19 15.9 °C 4.9 °C 1020.2 hPa South 13 km/h 7.1 km/h 48 % 0 mm
10:24 16.1 °C 4.5 °C 1020.2 hPa SSE 14.8 km/h 7.4 km/h 46 % 0 mm
10:29 16.2 °C 4.2 °C 1019.9 hPa SSW 13 km/h 5.5 km/h 45 % 0 mm
10:34 16.2 °C 3.9 °C 1019.9 hPa SSW 14.8 km/h 10.6 km/h 44 % 0 mm
10:39 16.3 °C 4.3 °C 1019.9 hPa South 20.4 km/h 16.3 km/h 45 % 0 mm
10:44 16.4 °C 4.4 °C 1019.9 hPa SSW 16.7 km/h 9 km/h 45 % 0 mm
10:49 16.6 °C 4.3 °C 1019.9 hPa SSW 24.1 km/h 13 km/h 44 % 0 mm
10:54 16.7 °C 5.1 °C 1019.9 hPa South 16.7 km/h 12.6 km/h 46 % 0 mm
10:59 16.8 °C 4.2 °C 1019.9 hPa SW 18.5 km/h 9.2 km/h 43 % 0 mm
11:04 16.8 °C 4.2 °C 1019.9 hPa SSW 18.5 km/h 10.3 km/h 43 % 0 mm
11:09 16.9 °C 4.6 °C 1019.9 hPa South 16.7 km/h 12.6 km/h 44 % 0 mm
11:14 17.1 °C 4.4 °C 1019.9 hPa SSW 24.1 km/h 12.7 km/h 43 % 0 mm
11:19 17.1 °C 4.4 °C 1019.9 hPa SSW 25.9 km/h 12.4 km/h 43 % 0 mm
11:24 17.1 °C 4.4 °C 1019.9 hPa South 24.1 km/h 15.1 km/h 43 % 0 mm
11:29 17.4 °C 4.7 °C 1019.9 hPa SSW 18.5 km/h 11.3 km/h 43 % 0 mm
11:34 17.6 °C 4.9 °C 1019.9 hPa SW 25.7 km/h 14.3 km/h 43 % 0 mm
11:39 17.6 °C 5.2 °C 1019.5 hPa South 20.4 km/h 13.5 km/h 44 % 0 mm
11:44 18.2 °C 5.7 °C 1019.9 hPa SW 24.1 km/h 15.4 km/h 44 % 0 mm
11:49 18.4 °C 4.9 °C 1019.9 hPa North 24.1 km/h 17.9 km/h 41 % 0 mm
11:54 18.1 °C 5 °C 1019.9 hPa SW 24.1 km/h 13.8 km/h 42 % 0 mm
11:59 17.9 °C 4.8 °C 1019.9 hPa SSW 27.8 km/h 19.2 km/h 42 % 0 mm
12:04 17.8 °C 5.1 °C 1019.9 hPa SW 22.2 km/h 17.2 km/h 43 % 0 mm
12:09 18 °C 5.2 °C 1019.5 hPa WSW 22.2 km/h 11.1 km/h 43 % 0 mm
12:14 18.3 °C 4.8 °C 1019.5 hPa SSW 31.5 km/h 22 km/h 41 % 0 mm
12:19 18.3 °C 5.5 °C 1019.5 hPa WSW 18.5 km/h 15.6 km/h 43 % 0 mm
12:24 18.4 °C 4.9 °C 1019.5 hPa South 22.2 km/h 21.1 km/h 41 % 0 mm
12:29 18.4 °C 4.9 °C 1019.5 hPa WSW 22.2 km/h 18.8 km/h 41 % 0 mm
12:34 18.5 °C 5.3 °C 1019.5 hPa SW 20.4 km/h 14.5 km/h 42 % 0 mm
12:39 18.8 °C 5.9 °C 1019.5 hPa South 24.1 km/h 13.2 km/h 43 % 0 mm
12:44 18.7 °C 5.2 °C 1019.2 hPa SW 22.2 km/h 9.2 km/h 41 % 0 mm
12:49 18.8 °C 5.2 °C 1019.5 hPa SW 22.2 km/h 15.1 km/h 41 % 0 mm
12:54 18.8 °C 5.3 °C 1019.5 hPa SSW 27.8 km/h 20.3 km/h 41 % 0 mm
12:59 18.6 °C 5.4 °C 1019.2 hPa SSW 16.7 km/h 9.3 km/h 42 % 0 mm
13:04 19.1 °C 5.9 °C 1019.2 hPa SW 22.2 km/h 11.4 km/h 42 % 0 mm
13:09 19.6 °C 5.9 °C 1019.2 hPa WSW 25.9 km/h 15.8 km/h 41 % 0 mm
13:14 19 °C 5.4 °C 1019.2 hPa WSW 18.5 km/h 11.4 km/h 41 % 0 mm
13:19 18.8 °C 6 °C 1019.2 hPa SW 22.2 km/h 13.5 km/h 43 % 0 mm
13:24 19.2 °C 5.7 °C 1019.2 hPa SSW 16.7 km/h 20.3 km/h 41 % 0 mm
13:29 19.3 °C 5.7 °C 1018.8 hPa SSW 22.2 km/h 19.2 km/h 41 % 0 mm
13:34 19.5 °C 5.9 °C 1019.2 hPa SSW 22.2 km/h 14.8 km/h 41 % 0 mm
13:39 19.7 °C 6.1 °C 1019.2 hPa SW 25.9 km/h 18.5 km/h 41 % 0 mm
13:44 19.6 °C 6 °C 1019.2 hPa WSW 16.1 km/h 13 km/h 41 % 0 mm
13:49 19.6 °C 5.3 °C 1018.8 hPa SW 20.4 km/h 11.1 km/h 39 % 0 mm
13:54 19.7 °C 6.4 °C 1018.8 hPa South 18.5 km/h 12.2 km/h 42 % 0 mm
13:59 19.6 °C 5.9 °C 1018.8 hPa South 20.9 km/h 14.3 km/h 41 % 0 mm
14:04 19.8 °C 6.2 °C 1018.8 hPa WSW 20.4 km/h 11.1 km/h 41 % 0 mm
14:09 20.1 °C 5.7 °C 1018.8 hPa WSW 24.1 km/h 14.8 km/h 39 % 0 mm
14:14 20.3 °C 5.2 °C 1018.5 hPa WSW 22.2 km/h 10 km/h 37 % 0 mm
14:19 20.3 °C 5.6 °C 1018.5 hPa South 18.5 km/h 16.9 km/h 38 % 0 mm
14:24 20.1 °C 5.7 °C 1018.8 hPa SSW 19.3 km/h 20.3 km/h 39 % 0 mm
14:29 19.4 °C 5.8 °C 1018.5 hPa SSW 16.7 km/h 4.5 km/h 41 % 0 mm
14:34 19.8 °C 6.2 °C 1018.5 hPa South 14.8 km/h 3.7 km/h 41 % 0 mm
14:39 20 °C 5.6 °C 1018.5 hPa WSW 13 km/h 9.8 km/h 39 % 0 mm
14:44 19.8 °C 6.2 °C 1018.5 hPa South 25.9 km/h 16.7 km/h 41 % 0 mm
14:49 19.7 °C 6.1 °C 1018.5 hPa SSW 16.7 km/h 7.2 km/h 41 % 0 mm
14:54 20.1 °C 5.3 °C 1018.5 hPa SW 20.4 km/h 14 km/h 38 % 0 mm
14:59 19.8 °C 5.4 °C 1018.5 hPa SSW 16.7 km/h 10.1 km/h 39 % 0 mm
15:04 20.1 °C 5.7 °C 1018.5 hPa SSW 27.8 km/h 15.8 km/h 39 % 0 mm
15:09 20.6 °C 5 °C 1018.2 hPa SW 14.8 km/h 12.1 km/h 36 % 0 mm
15:14 20.9 °C 5.7 °C 1018.2 hPa North 20.4 km/h 17.7 km/h 37 % 0 mm
15:19 20.5 °C 5.7 °C 1018.2 hPa WSW 22.5 km/h 12.2 km/h 38 % 0 mm
15:24 20.3 °C 5.5 °C 1018.2 hPa SW 18.5 km/h 13.5 km/h 38 % 0 mm
15:29 19.8 °C 4.7 °C 1018.2 hPa SSW 22.5 km/h 9.8 km/h 37 % 0 mm
15:34 19.6 °C 5.3 °C 1018.2 hPa South 18.5 km/h 7.9 km/h 39 % 0 mm
15:39 20.1 °C 5.7 °C 1018.2 hPa South 7.4 km/h 9.8 km/h 39 % 0 mm
15:44 20.7 °C 5.9 °C 1018.2 hPa South 22.2 km/h 14.6 km/h 38 % 0 mm
15:49 21 °C 5.7 °C 1017.8 hPa SE 22.2 km/h 15.9 km/h 37 % 0 mm
15:54 21 °C 6.1 °C 1017.8 hPa SSE 18.5 km/h 16.1 km/h 38 % 0 mm
15:59 20.8 °C 5.2 °C 1017.8 hPa SW 24.1 km/h 11.3 km/h 36 % 0 mm
16:04 20.5 °C 4.9 °C 1017.8 hPa North 20.9 km/h 16.6 km/h 36 % 0 mm
16:09 20.8 °C 5.6 °C 1017.8 hPa SSW 27.4 km/h 16.1 km/h 37 % 0 mm
16:14 20.6 °C 4.9 °C 1018.2 hPa SSW 25.9 km/h 19.8 km/h 36 % 0 mm
16:19 20.2 °C 5.1 °C 1017.8 hPa SSW 13 km/h 10.3 km/h 37 % 0 mm
16:24 20.5 °C 4.9 °C 1017.8 hPa South 22.5 km/h 19.3 km/h 36 % 0 mm
16:29 20.3 °C 4.8 °C 1017.8 hPa South 27.8 km/h 16.7 km/h 36 % 0 mm
16:34 20.2 °C 5.1 °C 1017.8 hPa South 25.9 km/h 15.6 km/h 37 % 0 mm
16:39 20.1 °C 4.9 °C 1017.8 hPa SSW 17.7 km/h 12.2 km/h 37 % 0 mm
16:44 20.1 °C 5.3 °C 1017.8 hPa South 14.8 km/h 10.8 km/h 38 % 0 mm
16:49 20.1 °C 4.6 °C 1017.8 hPa South 16.7 km/h 4.5 km/h 36 % 0 mm
16:54 20.4 °C 4.4 °C 1017.8 hPa SW 22.2 km/h 14.3 km/h 35 % 0 mm
16:59 20.4 °C 4.4 °C 1017.8 hPa SW 20.4 km/h 10.8 km/h 35 % 0 mm
17:04 20.2 °C 4.3 °C 1017.8 hPa SSW 29.6 km/h 15.9 km/h 35 % 0 mm
17:09 20.1 °C 4.1 °C 1017.8 hPa SSW 27.8 km/h 18.5 km/h 35 % 0 mm
17:14 20.1 °C 5.7 °C 1017.8 hPa SSW 31.5 km/h 19 km/h 39 % 0 mm
17:19 19.6 °C 5.2 °C 1017.8 hPa SSW 20.9 km/h 13.2 km/h 39 % 0 mm
17:24 19.4 °C 5.8 °C 1018.2 hPa South 25.9 km/h 12.7 km/h 41 % 0 mm
17:29 19.3 °C 5.7 °C 1018.2 hPa SSW 24.1 km/h 17.4 km/h 41 % 0 mm
17:34 19.1 °C 5.6 °C 1018.2 hPa SW 35.2 km/h 21.6 km/h 41 % 0 mm
17:39 18.9 °C 5.7 °C 1018.2 hPa SW 31.5 km/h 16.3 km/h 42 % 0 mm
17:44 19.1 °C 5.9 °C 1018.2 hPa SSW 29.6 km/h 21.6 km/h 42 % 0 mm
17:49 19 °C 5.8 °C 1018.2 hPa South 29.6 km/h 17.9 km/h 42 % 0 mm
17:54 18.9 °C 6.1 °C 1018.2 hPa SSE 27.8 km/h 16.3 km/h 43 % 0 mm
17:59 18.8 °C 5.6 °C 1018.2 hPa South 25.9 km/h 14 km/h 42 % 0 mm
18:04 18.9 °C 6.1 °C 1018.2 hPa SSE 20.9 km/h 14.2 km/h 43 % 0 mm
18:09 19 °C 5.8 °C 1018.2 hPa South 27.8 km/h 14.5 km/h 42 % 0 mm
18:14 18.7 °C 5.2 °C 1018.2 hPa SSE 29.6 km/h 16.9 km/h 41 % 0 mm
18:19 18.5 °C 5.3 °C 1018.2 hPa South 20.4 km/h 11.1 km/h 42 % 0 mm
18:24 18.4 °C 5.2 °C 1018.2 hPa South 22.2 km/h 15.8 km/h 42 % 0 mm
18:29 18.4 °C 5.3 °C 1018.2 hPa SSE 18.5 km/h 16.4 km/h 42 % 0 mm
18:34 18.5 °C 5.7 °C 1018.5 hPa SSE 18.5 km/h 13.7 km/h 43 % 0 mm
18:39 18.3 °C 5.5 °C 1018.5 hPa SSE 20.4 km/h 8.5 km/h 43 % 0 mm
18:44 18.2 °C 5.1 °C 1018.5 hPa South 20.4 km/h 16.4 km/h 42 % 0 mm
18:49 18.2 °C 5.4 °C 1018.5 hPa SSW 16.7 km/h 13.2 km/h 43 % 0 mm
18:54 18.2 °C 5.4 °C 1018.5 hPa SSW 18.5 km/h 10.9 km/h 43 % 0 mm
18:59 18 °C 5.2 °C 1018.8 hPa SSE 24.1 km/h 14.5 km/h 43 % 0 mm
19:04 17.8 °C 5.1 °C 1018.8 hPa South 20.9 km/h 14.2 km/h 43 % 0 mm
19:09 17.7 °C 4.9 °C 1018.8 hPa South 20.4 km/h 16.4 km/h 43 % 0 mm
19:14 17.4 °C 5.1 °C 1018.8 hPa South 31.5 km/h 15.8 km/h 44 % 0 mm
19:19 17.3 °C 4.9 °C 1018.8 hPa South 22.2 km/h 15.9 km/h 44 % 0 mm
19:24 17.2 °C 4.8 °C 1018.8 hPa SSW 19.3 km/h 14.2 km/h 44 % 0 mm
19:29 16.9 °C 4.6 °C 1018.8 hPa South 20.4 km/h 14 km/h 44 % 0 mm
19:34 16.7 °C 4.7 °C 1019.2 hPa South 18.5 km/h 17.5 km/h 45 % 0 mm
19:39 16.4 °C 5.1 °C 1019.2 hPa South 13 km/h 7.7 km/h 47 % 0 mm
19:44 16.2 °C 4.9 °C 1019.5 hPa South 22.2 km/h 14.3 km/h 47 % 0 mm
19:49 15.9 °C 4.9 °C 1019.5 hPa South 19.3 km/h 14 km/h 48 % 0 mm
19:54 15.6 °C 4.9 °C 1019.5 hPa South 20.4 km/h 14 km/h 49 % 0 mm
19:59 15.2 °C 4.8 °C 1019.5 hPa SSW 20.4 km/h 13.5 km/h 50 % 0 mm
20:04 14.9 °C 4.8 °C 1019.5 hPa South 25.9 km/h 11.6 km/h 51 % 0 mm
20:09 14.7 °C 4.9 °C 1019.5 hPa South 25.9 km/h 14.6 km/h 52 % 0 mm
20:14 14.4 °C 4.9 °C 1019.9 hPa South 31.5 km/h 11.1 km/h 53 % 0 mm
20:19 14.2 °C 5 °C 1019.9 hPa South 19.3 km/h 15.6 km/h 54 % 0 mm
20:24 13.9 °C 5 °C 1019.9 hPa South 18.5 km/h 12.7 km/h 55 % 0 mm
20:29 13.7 °C 4.8 °C 1020.2 hPa South 14.8 km/h 12.4 km/h 55 % 0 mm
20:34 13.5 °C 4.9 °C 1020.2 hPa South 16.1 km/h 10.9 km/h 56 % 0 mm
20:39 13.3 °C 4.9 °C 1020.2 hPa South 18.5 km/h 10 km/h 57 % 0 mm
20:44 13.1 °C 5 °C 1020.5 hPa South 14.8 km/h 9.5 km/h 58 % 0 mm
20:49 12.9 °C 5.1 °C 1020.5 hPa South 18.5 km/h 6.4 km/h 59 % 0 mm
20:54 12.7 °C 5.1 °C 1020.5 hPa South 9.3 km/h 7.4 km/h 60 % 0 mm
20:59 12.5 °C 5.2 °C 1020.5 hPa South 20.4 km/h 10.3 km/h 61 % 0 mm
21:04 12.3 °C 5.2 °C 1020.9 hPa South 17.7 km/h 16.1 km/h 62 % 0 mm
21:09 12.1 °C 5.1 °C 1020.9 hPa South 18.5 km/h 13.2 km/h 62 % 0 mm
21:14 11.9 °C 5.1 °C 1020.9 hPa South 18.5 km/h 8.9 km/h 63 % 0 mm
21:19 11.8 °C 5.4 °C 1021.2 hPa South 18.5 km/h 11.4 km/h 65 % 0 mm
21:24 11.6 °C 5.4 °C 1021.2 hPa South 20.4 km/h 15.4 km/h 66 % 0 mm
21:29 11.4 °C 5.3 °C 1021.2 hPa South 20.4 km/h 13.7 km/h 66 % 0 mm
21:34 11.3 °C 5.4 °C 1021.2 hPa SSW 20.4 km/h 17.5 km/h 67 % 0 mm
21:39 11.2 °C 5.5 °C 1021.2 hPa SSW 18.5 km/h 14.6 km/h 68 % 0 mm
21:44 11.1 °C 5.4 °C 1021.2 hPa South 20.4 km/h 11.3 km/h 68 % 0 mm
21:49 11 °C 5.5 °C 1021.6 hPa South 16.7 km/h 7.6 km/h 69 % 0 mm
21:54 10.8 °C 5.4 °C 1021.6 hPa South 13 km/h 10 km/h 69 % 0 mm
21:59 10.7 °C 5.4 °C 1021.6 hPa South 11.1 km/h 7.1 km/h 70 % 0 mm
22:04 10.6 °C 5.5 °C 1021.6 hPa South 13 km/h 9.5 km/h 71 % 0 mm
22:09 10.4 °C 5.4 °C 1021.6 hPa South 12.9 km/h 8 km/h 71 % 0 mm
22:14 10.3 °C 5.4 °C 1021.9 hPa South 13 km/h 6.9 km/h 72 % 0 mm
22:19 10.2 °C 5.3 °C 1021.9 hPa South 9.3 km/h 7.6 km/h 72 % 0 mm
22:24 10.1 °C 5.4 °C 1021.9 hPa South 14.8 km/h 10.9 km/h 73 % 0 mm
22:29 10 °C 5.6 °C 1021.9 hPa South 14.8 km/h 10.6 km/h 74 % 0 mm
22:34 9.9 °C 5.4 °C 1021.9 hPa South 16.7 km/h 10.8 km/h 74 % 0 mm
22:39 9.8 °C 5.6 °C 1021.9 hPa South 13 km/h 9.3 km/h 75 % 0 mm
22:44 9.7 °C 5.7 °C 1022.2 hPa South 13 km/h 8.7 km/h 76 % 0 mm
22:49 9.6 °C 5.6 °C 1022.2 hPa South 13 km/h 7.7 km/h 76 % 0 mm
22:54 9.5 °C 5.7 °C 1021.9 hPa South 14.8 km/h 10.8 km/h 77 % 0 mm
22:59 9.4 °C 5.6 °C 1021.9 hPa South 14.8 km/h 9.8 km/h 77 % 0 mm
23:04 9.3 °C 5.7 °C 1021.9 hPa South 12.9 km/h 8.9 km/h 78 % 0 mm
23:09 9.2 °C 5.8 °C 1021.9 hPa South 13 km/h 9.3 km/h 79 % 0 mm
23:14 9.1 °C 5.7 °C 1021.9 hPa South 13 km/h 8.4 km/h 79 % 0 mm
23:19 8.9 °C 5.5 °C 1021.9 hPa South 11.1 km/h 6.1 km/h 79 % 0 mm
23:24 8.8 °C 5.6 °C 1021.9 hPa South 11.1 km/h 10.9 km/h 80 % 0 mm
23:29 8.7 °C 5.7 °C 1021.9 hPa South 16.7 km/h 7.2 km/h 81 % 0 mm
23:34 8.6 °C 5.6 °C 1021.9 hPa South 13 km/h 10.3 km/h 81 % 0 mm
23:39 8.6 °C 5.7 °C 1021.9 hPa South 16.7 km/h 12.2 km/h 82 % 0 mm
23:44 8.4 °C 5.6 °C 1021.9 hPa South 13 km/h 12.4 km/h 82 % 0 mm
23:49 8.4 °C 5.7 °C 1021.9 hPa South 13 km/h 11.7 km/h 83 % 0 mm
23:54 8.3 °C 5.6 °C 1021.9 hPa South 14.8 km/h 11.9 km/h 83 % 0 mm
23:59 8.3 °C 5.6 °C 1021.9 hPa South 18.5 km/h 10 km/h 83 % 0 mm
Ararat Weather
Compliments of Weather Underground - 2.25 mb
Click here to send mail.


ABOUT

Live weather data from Ararat, Victoria, Australia, 3377
Data uploaded from Cumulus every 5 minutes to Weather Underground.
This site then downloads the raw data for formatting and display.
Metric and imperial data can be displayed. Graphs and historical data available.
Includes Sun and Moon times and rain image live from BOM.

Check out Ararat Weather on Facebook, Twitter and Google +

Help support ongoing costs by checking out the ads





Follow @AraratWeather